Stations météo

réclame
Mon MeteoGroup
Laupheim, Allemagne (10837): Température de l'air & dewpoint: 11.12.2017 09:00:00 - 17.12.2017 09:00:00 (CET)Laupheim, Allemagne (10837): Vitesse du vent & gusts: 11.12.2017 09:00:00 - 17.12.2017 09:00:00 (CET)Laupheim, Allemagne (10837): Direction du vent: 11.12.2017 09:00:00 - 17.12.2017 09:00:00 (CET)Laupheim, Allemagne (10837): reduced air pressure: 11.12.2017 09:00:00 - 17.12.2017 09:00:00 (CET)Laupheim, Allemagne (10837): visibility: 11.12.2017 09:00:00 - 17.12.2017 09:00:00 (CET)
Date & Time tt [°C] td [°C] ff [km/h] ff [knt] fx [km/h] fx [knt] dd ppp [hPa] vv [km]
17.12.2017 09:00:00 - - - - - - - - -
17.12.2017 08:00:00 -0,3 -1,9 11 6 - - NNE 1023,1 25
17.12.2017 07:00:00 -0,4 -1,5 7 4 - - WSW 1022,6 18
17.12.2017 06:00:00 -0,8 -1,5 11 6 - - WSW 1022,3 7
17.12.2017 05:00:00 -0,9 -2,0 11 6 - - WSW 1021,8 10
17.12.2017 04:00:00 -0,7 -1,7 7 4 - - WSW 1021,4 9
17.12.2017 03:00:00 -0,6 -1,7 7 4 - - W 1021,0 9
17.12.2017 02:00:00 -0,3 -1,4 11 6 - - WSW 1020,5 8
17.12.2017 01:00:00 -0,4 -1,1 11 6 - - WSW 1020,5 8
17.12.2017 00:00:00 -0,3 -2,0 9 5 - - SW 1020,3 3,0
16.12.2017 23:00:00 -0,3 -2,2 11 6 - - WSW 1019,8 18
16.12.2017 22:00:00 0,1 -1,6 14 8 - - WSW 1019,4 18
16.12.2017 21:00:00 0,5 -1,4 14 8 - - SW 1018,9 15
16.12.2017 20:00:00 0,5 -1,6 11 6 - - SW 1018,3 15
16.12.2017 19:00:00 0,3 -1,7 11 6 - - W 1017,5 15
16.12.2017 18:00:00 0,4 -2,0 11 6 - - WSW 1016,5 15
16.12.2017 17:00:00 0,4 -2,2 11 6 - - W 1015,9 25
16.12.2017 16:00:00 0,8 -1,3 11 6 - - W 1014,7 27
16.12.2017 15:00:00 0,9 -0,9 11 6 - - W 1013,6 27
16.12.2017 14:00:00 0,9 -1,1 7 4 - - NW 1013,0 25
16.12.2017 13:00:00 0,7 -0,3 7 4 - - NW 1012,1 6
16.12.2017 12:00:00 0,3 -0,2 13 7 - - W 1011,4 0,6
16.12.2017 11:00:00 0,8 0,0 11 6 - - WSW 1010,5 5
16.12.2017 10:00:00 0,5 -0,6 11 6 - - SW 1009,7 10
16.12.2017 09:00:00 0,3 -1,1 11 6 - - SW 1008,9 18
16.12.2017 08:00:00 0,4 -1,0 14 8 - - WSW 1007,8 15
16.12.2017 07:00:00 -0,2 -1,4 7 4 - - SSW 1006,9 15
16.12.2017 06:00:00 -1,3 -2,2 7 4 - - S 1006,4 20
16.12.2017 05:00:00 -0,8 -1,8 14 8 - - W 1005,6 25
16.12.2017 04:00:00 -0,7 -1,5 11 6 - - W 1005,0 25
16.12.2017 03:00:00 -2,2 -2,8 7 4 - - E 1005,2 25
16.12.2017 02:00:00 -1,9 -2,9 4 2 - - NW 1004,5 25
16.12.2017 01:00:00 -0,1 -1,7 7 4 - - W 1003,7 25
16.12.2017 00:00:00 0,4 -1,3 7 4 - - SSW 1003,8 25
15.12.2017 23:00:00 -0,4 -1,9 7 4 - - SSW 1003,8 25
15.12.2017 22:00:00 0,8 -1,4 14 8 - - WSW 1003,0 25
15.12.2017 21:00:00 0,0 -2,3 7 4 - - S 1003,1 25
15.12.2017 20:00:00 -1,0 -3,2 7 4 - - SSE 1003,1 25
15.12.2017 19:00:00 0,4 -2,8 7 4 - - N 1002,4 25
15.12.2017 18:00:00 1,4 -2,7 14 8 - - WSW 1002,1 25
15.12.2017 17:00:00 2,2 -2,6 18 10 - - WSW 1001,4 30
15.12.2017 16:00:00 3,4 -2,4 25 14 - - WSW 1001,0 30
15.12.2017 15:00:00 3,9 -1,8 29 16 50 27 WSW 1000,4 30
15.12.2017 14:00:00 4,2 -1,8 32 18 54 29 WSW 1000,1 30
15.12.2017 13:00:00 4,4 -1,5 36 19 - - WSW 1000,0 30
15.12.2017 12:00:00 3,6 -1,3 32 18 50 27 WSW 1000,2 30
15.12.2017 11:00:00 3,0 -1,0 25 14 - - WSW 1000,8 30
15.12.2017 10:00:00 2,2 -1,0 22 12 - - WSW 1000,6 30
15.12.2017 09:00:00 1,4 -0,9 18 10 - - SW 1000,7 30
15.12.2017 08:00:00 1,1 -0,7 22 12 - - WSW 1000,7 25
15.12.2017 07:00:00 1,4 -0,5 22 12 - - SW 1000,4 25
15.12.2017 06:00:00 1,5 -0,4 25 14 - - WSW 999,5 25
15.12.2017 05:00:00 1,8 -0,3 25 14 50 27 SW 998,5 25
15.12.2017 04:00:00 1,7 0,2 32 18 - - SW 997,6 18
15.12.2017 03:00:00 1,5 0,4 22 12 - - SSW 996,6 10
15.12.2017 02:00:00 1,7 0,5 25 14 - - SSW 996,7 15
15.12.2017 01:00:00 1,6 0,5 22 12 - - SSW 997,0 18
15.12.2017 00:00:00 1,7 0,5 22 12 - - SSW 997,6 15
14.12.2017 23:00:00 1,7 0,4 25 14 - - SW 997,9 18
14.12.2017 22:00:00 1,5 0,5 22 12 - - SSW 998,2 15
14.12.2017 21:00:00 2,0 0,8 18 10 - - SSW 998,7 20
14.12.2017 20:00:00 2,2 0,5 21 11 - - SSW 999,3 10
14.12.2017 19:00:00 2,4 0,1 29 16 - - SW 1000,4 30
14.12.2017 18:00:00 2,8 0,1 29 16 47 25 SW 1000,7 30
14.12.2017 17:00:00 2,8 0,7 29 16 47 25 SW 1001,9 30
14.12.2017 16:00:00 2,8 -0,3 22 12 - - SSW 1002,5 40
14.12.2017 15:00:00 2,8 -0,5 25 14 - - SW 1003,3 40
14.12.2017 14:00:00 3,0 -0,7 25 14 - - SW 1003,9 40
14.12.2017 13:00:00 3,2 -1,0 25 14 - - WSW 1004,3 40
14.12.2017 12:00:00 2,3 -0,4 25 14 - - SW 1005,1 40
14.12.2017 11:00:00 3,1 -0,8 29 16 47 25 SW 1005,5 40
14.12.2017 10:00:00 2,4 -1,4 22 12 - - WSW 1005,3 40
14.12.2017 09:00:00 2,5 -1,8 32 18 54 29 WSW 1004,3 40
14.12.2017 08:00:00 2,4 -1,0 25 14 65 35 WSW 1002,5 40
14.12.2017 07:00:00 1,2 0,5 46 25 - - W 1002,2 8
14.12.2017 06:00:00 5,3 2,6 32 18 61 33 WSW 997,9 20
14.12.2017 05:00:00 5,3 2,8 40 21 72 39 WSW 998,5 20
14.12.2017 04:00:00 5,5 3,0 47 25 - - WSW 998,4 20
14.12.2017 03:00:00 5,2 2,4 40 21 68 37 WSW 998,6 20
14.12.2017 02:00:00 4,2 1,8 36 19 54 29 WSW 999,0 20
14.12.2017 01:00:00 1,7 0,4 25 14 - - SW 1000,2 16
14.12.2017 00:00:00 1,1 -0,8 14 8 - - SW 1001,0 16
13.12.2017 23:00:00 1,7 -1,6 18 10 - - SW 1002,1 18
13.12.2017 22:00:00 1,8 -0,9 22 12 - - SW 1004,3 20
13.12.2017 21:00:00 1,1 -0,7 18 10 - - SSW 1004,8 20
13.12.2017 20:00:00 0,9 -0,5 25 14 - - SW 1008,0 10
13.12.2017 19:00:00 0,4 -0,7 29 16 - - SW 1008,9 2,2
13.12.2017 18:00:00 1,8 -4,1 31 17 50 27 SW 1009,3 1,8
13.12.2017 17:00:00 2,3 -5,3 14 8 - - SSW 1009,6 40
13.12.2017 16:00:00 2,1 -4,3 18 10 - - SSW 1010,5 60
13.12.2017 15:00:00 2,2 -4,1 18 10 - - SW 1011,1 60
13.12.2017 14:00:00 2,3 -4,2 18 10 - - SSW 1012,5 30
13.12.2017 13:00:00 2,4 -4,2 22 12 - - WSW 1014,6 35
13.12.2017 12:00:00 1,4 -3,3 14 8 - - SSW 1016,1 30
13.12.2017 11:00:00 0,4 -2,8 14 8 - - SW 1018,3 21
13.12.2017 10:00:00 -0,5 -3,1 7 4 - - SW 1019,2 18
13.12.2017 09:00:00 -2,4 -3,9 11 6 - - SW 1020,3 16
13.12.2017 08:00:00 -3,0 -4,1 4 2 - - WSW 1020,6 9
13.12.2017 07:00:00 -3,0 -3,9 11 6 - - WSW 1021,1 7
13.12.2017 06:00:00 -3,0 -3,7 4 2 - - N 1021,4 5
13.12.2017 05:00:00 -2,5 -3,3 7 4 - - WSW 1021,4 5
13.12.2017 04:00:00 -1,8 -2,8 11 6 - - WSW 1021,4 8
13.12.2017 03:00:00 -1,6 -2,7 11 6 - - WSW 1021,4 10
13.12.2017 02:00:00 -0,9 -2,4 7 4 - - WSW 1021,0 15
13.12.2017 01:00:00 -1,0 -2,5 11 6 - - SW 1021,0 15
13.12.2017 00:00:00 -0,9 -2,6 11 6 - - SW 1021,0 15
12.12.2017 23:00:00 -0,6 -2,5 11 6 - - SW 1020,7 18
12.12.2017 22:00:00 -0,3 -2,6 14 8 - - SW 1020,1 18
12.12.2017 21:00:00 0,0 -2,3 14 8 - - SW 1019,3 20
12.12.2017 20:00:00 0,3 -1,6 11 6 - - SW 1018,7 30
12.12.2017 19:00:00 0,6 -1,6 14 8 - - SW 1017,9 30
12.12.2017 18:00:00 0,8 -1,9 14 8 - - SW 1016,8 30
12.12.2017 17:00:00 1,1 -1,7 18 10 - - SW 1015,9 30
12.12.2017 16:00:00 1,5 -1,5 18 10 - - SW 1014,7 30
12.12.2017 15:00:00 1,6 -1,6 18 10 - - SW 1013,8 30
12.12.2017 14:00:00 1,6 -1,5 18 10 - - SW 1013,4 30
12.12.2017 13:00:00 1,7 -1,5 22 12 - - SW 1013,1 30
12.12.2017 12:00:00 1,7 -1,8 18 10 - - SW 1012,2 30
12.12.2017 11:00:00 1,8 -1,9 18 10 - - SW 1011,9 30
12.12.2017 10:00:00 1,6 -1,8 14 8 - - SW 1010,4 30
12.12.2017 09:00:00 1,9 -3,8 18 10 - - W 1008,8 30
12.12.2017 08:00:00 2,1 -2,6 22 12 - - WSW 1007,1 25
12.12.2017 07:00:00 2,0 -2,3 25 14 - - W 1004,4 20
12.12.2017 06:00:00 2,6 -2,0 29 16 61 33 WSW 1002,0 20
12.12.2017 05:00:00 3,8 1,5 29 16 - - WSW 999,3 20
12.12.2017 04:00:00 3,7 1,5 18 10 - - WSW 997,4 20
12.12.2017 03:00:00 3,9 1,6 14 8 - - SW 996,0 20
12.12.2017 02:00:00 4,1 1,6 22 12 - - SW 994,8 20
12.12.2017 01:00:00 3,2 1,5 22 12 - - SSW 993,7 20
12.12.2017 00:00:00 2,9 1,5 22 12 - - SSW 993,4 15
11.12.2017 23:00:00 3,1 1,6 22 12 - - SSW 992,5 12
11.12.2017 22:00:00 3,2 1,6 22 12 - - SSW 991,7 12
11.12.2017 21:00:00 3,4 2,1 18 10 - - SSW 991,1 12
11.12.2017 20:00:00 3,9 2,1 14 8 - - SW 990,4 18
11.12.2017 19:00:00 4,0 2,0 11 6 - - SSW 989,0 20
11.12.2017 18:00:00 3,0 1,0 11 6 - - SSW 988,4 20
11.12.2017 17:00:00 2,7 1,0 8 4 - - WSW 987,0 10
11.12.2017 16:00:00 2,9 1,0 4 2 - - NNW 985,3 20
11.12.2017 15:00:00 2,7 1,3 7 4 - - NNW 983,5 20
11.12.2017 14:00:00 3,0 1,4 4 2 - - NNE 983,1 25
11.12.2017 13:00:00 3,6 1,1 7 4 - - NE 983,4 30
11.12.2017 12:00:00 3,0 1,2 7 4 - - N 984,6 30
11.12.2017 11:00:00 4,2 1,1 7 4 - - NNE 985,0 25
11.12.2017 10:00:00 4,2 1,6 11 6 - - SE 985,6 25
11.12.2017 09:00:00 4,2 1,7 7 4 - - SE 986,1 12

tt = Température de l'air
td = dewpoint
ff = Vitesse du vent
fx = gusts
dd = Direction du vent
ppp = reduced air pressure
vv = visibility

stations d'obs. à proximité